Time,TemperatureF,DewpointF,PressureIn,WindDirection,WindDirectionDegrees,WindSpeedMPH,WindSpeedGustMPH,Humidity,HourlyPrecipIn,Conditions,Clouds,dailyrainin,SolarRadiationWatts/m^2,SoftwareType,DateUTC
2014-01-13 00:00:00,26.9,24.6,30.09,SE,131,0.0,0.0,91,0.00,,,0.00,0,Wunderground v.1.15,2014-01-13 05:00:00,
2014-01-13 00:05:00,26.8,24.5,30.09,SE,131,0.0,0.0,91,0.00,,,0.00,0,Wunderground v.1.15,2014-01-13 05:05:00,
2014-01-13 00:10:00,26.6,24.3,30.09,SE,131,0.0,0.0,91,0.00,,,0.00,0,Wunderground v.1.15,2014-01-13 05:10:00,
2014-01-13 00:15:00,26.5,24.2,30.09,SE,131,0.0,0.0,91,0.00,,,0.00,0,Wunderground v.1.15,2014-01-13 05:15:00,
2014-01-13 00:25:00,26.2,23.9,30.09,SE,131,0.0,0.0,91,0.00,,,0.00,0,Wunderground v.1.15,2014-01-13 05:25:00,
2014-01-13 00:30:00,26.1,23.8,30.09,SE,131,0.0,0.0,91,0.00,,,0.00,0,Wunderground v.1.15,2014-01-13 05:30:00,
2014-01-13 00:40:00,26.0,23.7,30.09,SE,131,0.0,0.0,91,0.00,,,0.00,0,Wunderground v.1.15,2014-01-13 05:40:00,
2014-01-13 00:45:00,26.0,24.0,30.09,SE,131,0.0,0.0,92,0.00,,,0.00,0,Wunderground v.1.15,2014-01-13 05:45:00,
2014-01-13 00:55:00,26.1,24.1,30.08,SE,131,0.0,0.0,92,0.00,,,0.00,0,Wunderground v.1.15,2014-01-13 05:55:00,
2014-01-13 01:05:00,26.2,24.2,30.08,SE,131,0.0,0.0,92,0.00,,,0.00,0,Wunderground v.1.15,2014-01-13 06:05:00,
2014-01-13 01:15:00,26.1,24.1,30.09,SE,131,0.0,0.0,92,0.00,,,0.00,0,Wunderground v.1.15,2014-01-13 06:15:00,
2014-01-13 01:20:00,26.1,24.1,30.09,SE,131,0.0,0.0,92,0.00,,,0.00,0,Wunderground v.1.15,2014-01-13 06:20:00,
2014-01-13 01:30:00,25.9,23.9,30.08,SE,131,0.0,0.0,92,0.00,,,0.00,0,Wunderground v.1.15,2014-01-13 06:30:00,
2014-01-13 01:40:00,25.7,23.7,30.08,SE,131,0.0,1.0,92,0.00,,,0.00,0,Wunderground v.1.15,2014-01-13 06:40:00,
2014-01-13 01:50:00,25.7,23.7,30.09,SE,131,0.0,0.0,92,0.00,,,0.00,0,Wunderground v.1.15,2014-01-13 06:50:00,
2014-01-13 02:00:00,25.6,23.9,30.09,SE,131,0.0,0.0,93,0.00,,,0.00,0,Wunderground v.1.15,2014-01-13 07:00:00,
2014-01-13 02:15:00,25.4,23.7,30.09,SE,131,0.0,0.0,93,0.00,,,0.00,0,Wunderground v.1.15,2014-01-13 07:15:00,
2014-01-13 02:25:00,25.3,23.6,30.08,SE,131,0.0,0.0,93,0.00,,,0.00,0,Wunderground v.1.15,2014-01-13 07:25:00,
2014-01-13 02:35:00,25.5,23.8,30.08,SE,131,1.0,1.0,93,0.00,,,0.00,0,Wunderground v.1.15,2014-01-13 07:35:00,
2014-01-13 02:45:00,25.4,23.7,30.09,SE,131,0.0,0.0,93,0.00,,,0.00,0,Wunderground v.1.15,2014-01-13 07:45:00,
2014-01-13 02:55:00,25.3,23.6,30.08,SE,131,0.0,0.0,93,0.00,,,0.00,0,Wunderground v.1.15,2014-01-13 07:55:00,
2014-01-13 03:05:00,25.1,23.4,30.08,SE,131,0.0,1.0,93,0.00,,,0.00,0,Wunderground v.1.15,2014-01-13 08:05:00,
2014-01-13 03:10:00,25.1,23.4,30.08,SE,131,0.0,1.0,93,0.00,,,0.00,0,Wunderground v.1.15,2014-01-13 08:10:00,
2014-01-13 03:20:00,25.1,23.4,30.08,SE,131,0.0,0.0,93,0.00,,,0.00,0,Wunderground v.1.15,2014-01-13 08:20:00,
2014-01-13 03:30:00,24.9,23.2,30.09,SE,131,0.0,0.0,93,0.00,,,0.00,0,Wunderground v.1.15,2014-01-13 08:30:00,
2014-01-13 03:35:00,24.8,23.1,30.09,SE,131,0.0,0.0,93,0.00,,,0.00,0,Wunderground v.1.15,2014-01-13 08:35:00,
2014-01-13 03:45:00,24.8,23.1,30.08,SE,132,0.0,1.0,93,0.00,,,0.00,0,Wunderground v.1.15,2014-01-13 08:45:00,
2014-01-13 03:55:00,25.3,23.8,30.08,SSE,158,1.0,1.0,94,0.00,,,0.00,0,Wunderground v.1.15,2014-01-13 08:55:00,
2014-01-13 04:05:00,25.2,23.7,30.06,SSE,155,0.0,1.0,94,0.00,,,0.00,0,Wunderground v.1.15,2014-01-13 09:05:00,
2014-01-13 04:15:00,24.9,23.2,30.07,SSE,154,1.0,1.0,93,0.00,,,0.00,0,Wunderground v.1.15,2014-01-13 09:15:00,
2014-01-13 04:25:00,24.5,22.8,30.07,SSE,154,0.0,0.0,93,0.00,,,0.00,0,Wunderground v.1.15,2014-01-13 09:25:00,
2014-01-13 04:30:00,24.3,22.6,30.08,SSE,154,0.0,0.0,93,0.00,,,0.00,0,Wunderground v.1.15,2014-01-13 09:30:00,
2014-01-13 04:40:00,24.0,22.3,30.08,SSE,154,0.0,0.0,93,0.00,,,0.00,0,Wunderground v.1.15,2014-01-13 09:40:00,
2014-01-13 04:50:00,24.2,22.7,30.09,SSE,154,0.0,0.0,94,0.00,,,0.00,0,Wunderground v.1.15,2014-01-13 09:50:00,
2014-01-13 05:00:00,24.2,22.7,30.08,SSE,154,0.0,0.0,94,0.00,,,0.00,0,Wunderground v.1.15,2014-01-13 10:00:00,
2014-01-13 05:10:00,24.0,22.5,30.08,SSE,154,0.0,0.0,94,0.00,,,0.00,0,Wunderground v.1.15,2014-01-13 10:10:00,
2014-01-13 05:15:00,24.0,22.5,30.08,SSE,154,0.0,0.0,94,0.00,,,0.00,0,Wunderground v.1.15,2014-01-13 10:15:00,
2014-01-13 05:25:00,24.0,22.5,30.08,SSE,154,0.0,0.0,94,0.00,,,0.00,0,Wunderground v.1.15,2014-01-13 10:25:00,
2014-01-13 05:35:00,23.9,22.4,30.08,SSE,154,0.0,0.0,94,0.00,,,0.00,0,Wunderground v.1.15,2014-01-13 10:35:00,
2014-01-13 05:40:00,23.8,22.3,30.08,SSE,154,0.0,0.0,94,0.00,,,0.00,0,Wunderground v.1.15,2014-01-13 10:40:00,
2014-01-13 05:45:00,23.8,22.3,30.08,SSE,154,0.0,0.0,94,0.00,,,0.00,0,Wunderground v.1.15,2014-01-13 10:45:00,
2014-01-13 05:55:00,24.1,22.6,30.07,SSE,154,0.0,0.0,94,0.00,,,0.00,0,Wunderground v.1.15,2014-01-13 10:55:00,
2014-01-13 06:00:00,24.2,22.7,30.08,SSE,154,0.0,0.0,94,0.00,,,0.00,0,Wunderground v.1.15,2014-01-13 11:00:00,
2014-01-13 06:05:00,24.2,22.7,30.08,SSE,154,0.0,0.0,94,0.00,,,0.00,0,Wunderground v.1.15,2014-01-13 11:05:00,
2014-01-13 06:15:00,24.1,22.6,30.08,SSE,154,0.0,0.0,94,0.00,,,0.00,0,Wunderground v.1.15,2014-01-13 11:15:00,
2014-01-13 06:20:00,24.0,22.5,30.08,SSE,154,0.0,0.0,94,0.00,,,0.00,0,Wunderground v.1.15,2014-01-13 11:20:00,
2014-01-13 06:30:00,23.7,22.2,30.08,SSE,154,0.0,0.0,94,0.00,,,0.00,0,Wunderground v.1.15,2014-01-13 11:30:00,
2014-01-13 06:40:00,23.6,22.1,30.08,SSE,154,0.0,0.0,94,0.00,,,0.00,0,Wunderground v.1.15,2014-01-13 11:40:00,
2014-01-13 06:45:00,23.5,22.0,30.07,SSE,154,0.0,0.0,94,0.00,,,0.00,0,Wunderground v.1.15,2014-01-13 11:45:00,
2014-01-13 06:55:00,23.7,22.2,30.07,SSE,154,0.0,0.0,94,0.00,,,0.00,0,Wunderground v.1.15,2014-01-13 11:55:00,
2014-01-13 07:00:00,23.6,22.1,30.08,SSE,154,0.0,0.0,94,0.00,,,0.00,0,Wunderground v.1.15,2014-01-13 12:00:00,
2014-01-13 07:05:00,23.4,21.9,30.08,SSE,154,0.0,0.0,94,0.00,,,0.00,0,Wunderground v.1.15,2014-01-13 12:05:00,
2014-01-13 07:10:00,23.4,21.9,30.08,SSE,154,0.0,0.0,94,0.00,,,0.00,0,Wunderground v.1.15,2014-01-13 12:10:00,
2014-01-13 07:15:00,23.4,21.9,30.08,SSE,154,0.0,0.0,94,0.00,,,0.00,0,Wunderground v.1.15,2014-01-13 12:15:00,
2014-01-13 07:20:00,23.4,21.9,30.08,SSE,154,0.0,0.0,94,0.00,,,0.00,7,Wunderground v.1.15,2014-01-13 12:20:00,
2014-01-13 07:25:00,23.5,22.0,30.08,SSE,154,0.0,0.0,94,0.00,,,0.00,9,Wunderground v.1.15,2014-01-13 12:25:00,
2014-01-13 07:35:00,24.0,22.8,30.08,SSE,154,0.0,0.0,95,0.00,,,0.00,12,Wunderground v.1.15,2014-01-13 12:35:00,
2014-01-13 07:40:00,24.3,23.1,30.09,SSE,154,0.0,0.0,95,0.00,,,0.00,19,Wunderground v.1.15,2014-01-13 12:40:00,
2014-01-13 07:50:00,24.6,23.4,30.08,SSE,154,0.0,0.0,95,0.00,,,0.00,16,Wunderground v.1.15,2014-01-13 12:50:00,
2014-01-13 08:00:00,25.1,23.9,30.09,SSE,154,0.0,0.0,95,0.00,,,0.00,25,Wunderground v.1.15,2014-01-13 13:00:00,
2014-01-13 08:10:00,25.2,24.0,30.09,SSE,154,0.0,0.0,95,0.00,,,0.00,42,Wunderground v.1.15,2014-01-13 13:10:00,
2014-01-13 08:20:00,25.5,24.3,30.09,SSE,154,0.0,0.0,95,0.00,,,0.00,30,Wunderground v.1.15,2014-01-13 13:20:00,
2014-01-13 08:30:00,26.1,24.9,30.08,SSE,154,0.0,0.0,95,0.00,,,0.00,28,Wunderground v.1.15,2014-01-13 13:30:00,
2014-01-13 08:40:00,26.5,25.3,30.09,SSE,154,0.0,0.0,95,0.00,,,0.00,33,Wunderground v.1.15,2014-01-13 13:40:00,
2014-01-13 08:50:00,27.5,26.3,30.09,SSE,154,0.0,0.0,95,0.00,,,0.00,102,Wunderground v.1.15,2014-01-13 13:50:00,
2014-01-13 09:00:00,28.3,27.3,30.08,SSE,154,0.0,0.0,96,0.00,,,0.00,211,Wunderground v.1.15,2014-01-13 14:00:00,
2014-01-13 09:10:00,29.5,28.5,30.08,SSE,154,0.0,0.0,96,0.00,,,0.00,250,Wunderground v.1.15,2014-01-13 14:10:00,
2014-01-13 09:20:00,30.5,29.5,30.08,SSE,154,0.0,1.0,96,0.00,,,0.00,251,Wunderground v.1.15,2014-01-13 14:20:00,
2014-01-13 09:30:00,32.2,31.2,30.07,East,91,1.0,1.0,96,0.00,,,0.00,181,Wunderground v.1.15,2014-01-13 14:30:00,
2014-01-13 09:35:00,33.0,31.7,30.06,ENE,68,1.0,1.0,95,0.00,,,0.00,283,Wunderground v.1.15,2014-01-13 14:35:00,
2014-01-13 09:45:00,35.1,33.8,30.05,ENE,68,0.0,1.0,95,0.00,,,0.00,320,Wunderground v.1.15,2014-01-13 14:45:00,
2014-01-13 09:55:00,36.6,34.8,30.04,East,83,0.0,0.0,93,0.00,,,0.00,250,Wunderground v.1.15,2014-01-13 14:55:00,
2014-01-13 10:05:00,37.5,34.8,30.04,East,84,1.0,1.0,90,0.00,,,0.00,329,Wunderground v.1.15,2014-01-13 15:05:00,
2014-01-13 10:15:00,37.8,34.0,30.04,North,360,1.0,1.0,86,0.00,,,0.00,237,Wunderground v.1.15,2014-01-13 15:15:00,
2014-01-13 10:25:00,38.4,34.0,30.04,NNW,333,1.0,2.0,84,0.00,,,0.00,283,Wunderground v.1.15,2014-01-13 15:25:00,
2014-01-13 10:30:00,38.7,34.0,30.05,NNW,332,1.0,1.0,83,0.00,,,0.00,144,Wunderground v.1.15,2014-01-13 15:30:00,
2014-01-13 10:40:00,39.7,34.3,30.04,North,4,1.0,1.0,81,0.00,,,0.00,422,Wunderground v.1.15,2014-01-13 15:40:00,
2014-01-13 10:50:00,41.0,35.6,30.03,NNW,328,1.0,1.0,81,0.00,,,0.00,482,Wunderground v.1.15,2014-01-13 15:50:00,
2014-01-13 11:00:00,42.6,35.6,30.03,WSW,251,1.0,1.0,76,0.00,,,0.00,559,Wunderground v.1.15,2014-01-13 16:00:00,
2014-01-13 11:10:00,43.9,35.5,30.02,WSW,241,1.0,3.0,72,0.00,,,0.00,487,Wunderground v.1.15,2014-01-13 16:10:00,
2014-01-13 11:20:00,44.3,34.4,30.01,WNW,299,1.0,1.0,68,0.00,,,0.00,359,Wunderground v.1.15,2014-01-13 16:20:00,
2014-01-13 11:25:00,44.2,34.3,30.01,NW,308,1.0,3.0,68,0.00,,,0.00,399,Wunderground v.1.15,2014-01-13 16:25:00,
2014-01-13 11:35:00,44.9,35.0,30.01,WSW,242,1.0,2.0,68,0.00,,,0.00,540,Wunderground v.1.15,2014-01-13 16:35:00,
2014-01-13 11:45:00,46.0,35.7,30.00,WSW,237,1.0,2.0,67,0.00,,,0.00,520,Wunderground v.1.15,2014-01-13 16:45:00,
2014-01-13 11:55:00,46.6,35.1,29.99,NNW,335,1.0,4.0,64,0.00,,,0.00,360,Wunderground v.1.15,2014-01-13 16:55:00,
2014-01-13 12:00:00,46.6,35.1,29.99,NW,311,2.0,2.0,64,0.00,,,0.00,462,Wunderground v.1.15,2014-01-13 17:00:00,
2014-01-13 12:10:00,47.2,36.0,29.99,South,175,1.0,1.0,65,0.00,,,0.00,374,Wunderground v.1.15,2014-01-13 17:10:00,
2014-01-13 12:15:00,47.6,36.0,29.98,WSW,257,1.0,1.0,64,0.00,,,0.00,492,Wunderground v.1.15,2014-01-13 17:15:00,
2014-01-13 12:25:00,48.4,36.4,29.97,SW,225,1.0,1.0,63,0.00,,,0.00,550,Wunderground v.1.15,2014-01-13 17:25:00,
2014-01-13 12:30:00,48.8,36.4,29.97,SW,216,2.0,2.0,62,0.00,,,0.00,459,Wunderground v.1.15,2014-01-13 17:30:00,
2014-01-13 12:40:00,48.9,35.6,29.96,SW,233,3.0,3.0,60,0.00,,,0.00,413,Wunderground v.1.15,2014-01-13 17:40:00,
2014-01-13 12:50:00,49.6,35.4,29.95,WSW,245,3.0,6.0,58,0.00,,,0.00,503,Wunderground v.1.15,2014-01-13 17:50:00,
2014-01-13 13:00:00,49.7,35.5,29.94,WSW,243,3.0,3.0,58,0.00,,,0.00,519,Wunderground v.1.15,2014-01-13 18:00:00,
2014-01-13 13:10:00,50.1,35.4,29.93,SSW,195,2.0,2.0,57,0.00,,,0.00,366,Wunderground v.1.15,2014-01-13 18:10:00,
2014-01-13 13:20:00,49.7,35.1,29.93,SSW,203,2.0,2.0,57,0.00,,,0.00,406,Wunderground v.1.15,2014-01-13 18:20:00,
2014-01-13 13:30:00,49.9,35.3,29.93,West,278,3.0,4.0,57,0.00,,,0.00,483,Wunderground v.1.15,2014-01-13 18:30:00,
2014-01-13 13:40:00,50.1,35.9,29.93,West,262,3.0,3.0,58,0.00,,,0.00,454,Wunderground v.1.15,2014-01-13 18:40:00,
2014-01-13 13:45:00,50.5,36.3,29.93,WNW,294,3.0,4.0,58,0.00,,,0.00,436,Wunderground v.1.15,2014-01-13 18:45:00,
2014-01-13 13:55:00,50.5,35.4,29.93,SW,221,4.0,4.0,56,0.00,,,0.00,432,Wunderground v.1.15,2014-01-13 18:55:00,
2014-01-13 14:00:00,50.2,34.6,29.93,SSW,197,5.0,7.0,55,0.00,,,0.00,204,Wunderground v.1.15,2014-01-13 19:00:00,
2014-01-13 14:10:00,50.3,35.6,29.93,SW,218,3.0,3.0,57,0.00,,,0.00,322,Wunderground v.1.15,2014-01-13 19:10:00,
2014-01-13 14:20:00,50.5,35.8,29.92,WSW,239,2.0,2.0,57,0.00,,,0.00,355,Wunderground v.1.15,2014-01-13 19:20:00,
2014-01-13 14:30:00,50.9,35.7,29.92,SW,220,2.0,2.0,56,0.00,,,0.00,318,Wunderground v.1.15,2014-01-13 19:30:00,
2014-01-13 14:40:00,50.6,35.9,29.93,SSW,201,3.0,3.0,57,0.00,,,0.00,336,Wunderground v.1.15,2014-01-13 19:40:00,
2014-01-13 14:50:00,50.9,36.2,29.92,SSW,197,2.0,4.0,57,0.00,,,0.00,211,Wunderground v.1.15,2014-01-13 19:50:00,
2014-01-13 14:55:00,50.7,36.0,29.92,WSW,253,3.0,4.0,57,0.00,,,0.00,135,Wunderground v.1.15,2014-01-13 19:55:00,
2014-01-13 15:05:00,50.2,36.0,29.93,SSW,208,2.0,4.0,58,0.00,,,0.00,137,Wunderground v.1.15,2014-01-13 20:05:00,
2014-01-13 15:15:00,50.2,36.4,29.93,SW,236,2.0,4.0,59,0.00,,,0.00,146,Wunderground v.1.15,2014-01-13 20:15:00,
2014-01-13 15:25:00,50.4,36.6,29.92,South,182,2.0,2.0,59,0.00,,,0.00,84,Wunderground v.1.15,2014-01-13 20:25:00,
2014-01-13 15:30:00,50.3,36.5,29.92,SSE,161,2.0,2.0,59,0.00,,,0.00,65,Wunderground v.1.15,2014-01-13 20:30:00,
2014-01-13 15:35:00,50.1,36.7,29.92,SSE,154,2.0,2.0,60,0.00,,,0.00,70,Wunderground v.1.15,2014-01-13 20:35:00,
2014-01-13 15:45:00,50.1,36.7,29.91,SW,227,1.0,2.0,60,0.00,,,0.00,46,Wunderground v.1.15,2014-01-13 20:45:00,
2014-01-13 15:55:00,50.0,36.7,29.91,West,273,1.0,1.0,60,0.00,,,0.00,32,Wunderground v.1.15,2014-01-13 20:55:00,
2014-01-13 16:05:00,50.0,37.1,29.91,SW,222,2.0,4.0,61,0.00,,,0.00,32,Wunderground v.1.15,2014-01-13 21:05:00,
2014-01-13 16:15:00,50.0,37.1,29.92,WSW,256,2.0,2.0,61,0.00,,,0.00,30,Wunderground v.1.15,2014-01-13 21:15:00,
2014-01-13 16:20:00,50.1,37.2,29.91,SW,232,2.0,2.0,61,0.00,,,0.00,25,Wunderground v.1.15,2014-01-13 21:20:00,
2014-01-13 16:30:00,50.0,37.5,29.92,SW,214,0.0,2.0,62,0.00,,,0.00,23,Wunderground v.1.15,2014-01-13 21:30:00,
2014-01-13 16:40:00,49.9,37.4,29.91,SW,227,1.0,2.0,62,0.00,,,0.00,23,Wunderground v.1.15,2014-01-13 21:40:00,
2014-01-13 16:50:00,50.0,37.5,29.91,SW,222,2.0,4.0,62,0.00,,,0.00,16,Wunderground v.1.15,2014-01-13 21:50:00,
2014-01-13 16:55:00,50.1,37.6,29.92,WNW,289,2.0,6.0,62,0.00,,,0.00,12,Wunderground v.1.15,2014-01-13 21:55:00,
2014-01-13 17:05:00,50.1,37.6,29.91,West,278,2.0,2.0,62,0.00,,,0.00,0,Wunderground v.1.15,2014-01-13 22:05:00,
2014-01-13 17:10:00,50.1,37.6,29.90,SW,232,1.0,1.0,62,0.00,,,0.00,0,Wunderground v.1.15,2014-01-13 22:10:00,
2014-01-13 17:20:00,49.9,37.8,29.89,SW,229,1.0,1.0,63,0.00,,,0.00,0,Wunderground v.1.15,2014-01-13 22:20:00,
2014-01-13 17:30:00,49.7,37.6,29.90,SW,220,2.0,2.0,63,0.00,,,0.00,0,Wunderground v.1.15,2014-01-13 22:30:00,
2014-01-13 17:40:00,49.8,38.1,29.90,WSW,237,2.0,2.0,64,0.00,,,0.00,0,Wunderground v.1.15,2014-01-13 22:40:00,
2014-01-13 17:50:00,50.1,38.0,29.88,NW,326,1.0,1.0,63,0.00,,,0.00,0,Wunderground v.1.15,2014-01-13 22:50:00,
2014-01-13 17:55:00,50.2,38.1,29.88,WSW,258,1.0,2.0,63,0.00,,,0.00,0,Wunderground v.1.15,2014-01-13 22:55:00,
2014-01-13 18:05:00,50.2,38.1,29.88,WSW,247,1.0,3.0,63,0.00,,,0.00,0,Wunderground v.1.15,2014-01-13 23:05:00,
2014-01-13 18:15:00,50.1,38.0,29.88,NW,318,2.0,2.0,63,0.00,,,0.00,0,Wunderground v.1.15,2014-01-13 23:15:00,
2014-01-13 18:25:00,50.5,38.0,29.89,West,268,2.0,3.0,62,0.00,,,0.00,0,Wunderground v.1.15,2014-01-13 23:25:00,
2014-01-13 18:35:00,51.1,38.1,29.89,WNW,297,2.0,3.0,61,0.00,,,0.00,0,Wunderground v.1.15,2014-01-13 23:35:00,
2014-01-13 18:45:00,51.4,38.0,29.88,NNW,333,3.0,3.0,60,0.00,,,0.00,0,Wunderground v.1.15,2014-01-13 23:45:00,
2014-01-13 18:55:00,51.4,38.0,29.88,West,278,3.0,4.0,60,0.00,,,0.00,0,Wunderground v.1.15,2014-01-13 23:55:00,
2014-01-13 19:05:00,51.5,38.1,29.89,NW,316,2.0,7.0,60,0.00,,,0.00,0,Wunderground v.1.15,2014-01-14 00:05:00,
2014-01-13 19:15:00,51.6,38.2,29.89,West,266,2.0,3.0,60,0.00,,,0.00,0,Wunderground v.1.15,2014-01-14 00:15:00,
2014-01-13 19:25:00,51.7,37.8,29.87,West,264,2.0,3.0,59,0.00,,,0.00,0,Wunderground v.1.15,2014-01-14 00:25:00,
2014-01-13 19:35:00,51.7,37.8,29.88,WSW,254,2.0,2.0,59,0.00,,,0.00,0,Wunderground v.1.15,2014-01-14 00:35:00,
2014-01-13 19:45:00,51.6,37.7,29.88,WSW,241,3.0,3.0,59,0.00,,,0.00,0,Wunderground v.1.15,2014-01-14 00:45:00,
2014-01-13 19:50:00,51.6,37.7,29.88,West,263,2.0,2.0,59,0.00,,,0.00,0,Wunderground v.1.15,2014-01-14 00:50:00,
2014-01-13 20:00:00,51.6,37.7,29.88,WSW,251,3.0,4.0,59,0.00,,,0.00,0,Wunderground v.1.15,2014-01-14 01:00:00,
2014-01-13 20:10:00,51.6,37.7,29.88,SW,223,3.0,3.0,59,0.00,,,0.00,0,Wunderground v.1.15,2014-01-14 01:10:00,
2014-01-13 20:15:00,51.6,37.7,29.87,WSW,243,3.0,3.0,59,0.00,,,0.00,0,Wunderground v.1.15,2014-01-14 01:15:00,
2014-01-13 20:25:00,51.6,37.7,29.87,WSW,254,3.0,3.0,59,0.00,,,0.00,0,Wunderground v.1.15,2014-01-14 01:25:00,
2014-01-13 20:30:00,51.6,37.7,29.87,WSW,254,4.0,4.0,59,0.00,,,0.00,0,Wunderground v.1.15,2014-01-14 01:30:00,
2014-01-13 20:40:00,51.6,37.7,29.87,WSW,240,3.0,4.0,59,0.00,,,0.00,0,Wunderground v.1.15,2014-01-14 01:40:00,
2014-01-13 20:50:00,51.4,37.5,29.87,SSW,195,3.0,5.0,59,0.00,,,0.00,0,Wunderground v.1.15,2014-01-14 01:50:00,
2014-01-13 21:00:00,51.3,37.4,29.87,WSW,254,2.0,2.0,59,0.00,,,0.00,0,Wunderground v.1.15,2014-01-14 02:00:00,
2014-01-13 21:10:00,51.0,37.6,29.87,SW,234,1.0,3.0,60,0.00,,,0.00,0,Wunderground v.1.15,2014-01-14 02:10:00,
2014-01-13 21:15:00,50.9,37.5,29.87,WSW,254,1.0,3.0,60,0.00,,,0.00,0,Wunderground v.1.15,2014-01-14 02:15:00,
2014-01-13 21:25:00,50.6,37.6,29.87,SW,235,1.0,1.0,61,0.00,,,0.00,0,Wunderground v.1.15,2014-01-14 02:25:00,
2014-01-13 21:35:00,50.4,37.4,29.87,WSW,247,1.0,2.0,61,0.00,,,0.00,0,Wunderground v.1.15,2014-01-14 02:35:00,
2014-01-13 21:45:00,50.1,37.6,29.87,WSW,255,1.0,2.0,62,0.00,,,0.00,0,Wunderground v.1.15,2014-01-14 02:45:00,
2014-01-13 21:55:00,50.0,37.5,29.85,SW,230,1.0,2.0,62,0.00,,,0.00,0,Wunderground v.1.15,2014-01-14 02:55:00,
2014-01-13 22:05:00,50.0,37.5,29.86,WSW,256,1.0,2.0,62,0.00,,,0.00,0,Wunderground v.1.15,2014-01-14 03:05:00,
2014-01-13 22:15:00,50.1,37.6,29.86,WNW,284,1.0,1.0,62,0.00,,,0.00,0,Wunderground v.1.15,2014-01-14 03:15:00,
2014-01-13 22:25:00,50.0,37.5,29.85,West,274,1.0,1.0,62,0.00,,,0.00,0,Wunderground v.1.15,2014-01-14 03:25:00,
2014-01-13 22:35:00,50.0,37.5,29.84,SSW,205,1.0,1.0,62,0.00,,,0.00,0,Wunderground v.1.15,2014-01-14 03:35:00,
2014-01-13 22:45:00,50.3,37.8,29.85,WSW,247,3.0,3.0,62,0.00,,,0.00,0,Wunderground v.1.15,2014-01-14 03:45:00,
2014-01-13 22:55:00,50.5,37.5,29.85,WSW,256,2.0,4.0,61,0.00,,,0.00,0,Wunderground v.1.15,2014-01-14 03:55:00,
2014-01-13 23:05:00,50.6,37.6,29.85,SW,235,2.0,4.0,61,0.00,,,0.00,0,Wunderground v.1.15,2014-01-14 04:05:00,
2014-01-13 23:10:00,50.6,38.1,29.84,West,263,2.0,2.0,62,0.00,,,0.00,0,Wunderground v.1.15,2014-01-14 04:10:00,
2014-01-13 23:20:00,50.6,38.5,29.85,WSW,254,2.0,3.0,63,0.00,,,0.00,0,Wunderground v.1.15,2014-01-14 04:20:00,
2014-01-13 23:30:00,50.3,39.0,29.85,SW,234,2.0,2.0,65,0.00,,,0.00,0,Wunderground v.1.15,2014-01-14 04:30:00,
2014-01-13 23:40:00,49.8,39.3,29.84,SSW,209,2.0,2.0,67,0.00,,,0.00,0,Wunderground v.1.15,2014-01-14 04:40:00,
2014-01-13 23:50:00,49.4,39.7,29.84,WSW,252,1.0,1.0,69,0.00,,,0.00,0,Wunderground v.1.15,2014-01-14 04:50:00,